This demonstration page uses our WeatherBlox Daily Observations layout. Learn more.

Hourly Observations for March 20, 2020

Temp ( °F °C ) Dew Point ( °F °C ) Humidity (%) Winds ( mph kmh ) Pressure ( in mb ) Visibility ( mi km ) Precip ( " mm )
12:15 am 00:15 Cloudy 27 -2.8 24 -4.7 87 87 N 33 54 30.3 1026 10 16.0934 0 0
12:35 am 00:35 Windy with Snow Likely 27 -2.7 23 -5 84 84 N 28 44 30.31 1026 10 16.0934 0 0
12:55 am 00:55 Cloudy 26 -3.2 22 -5.7 83 83 N 30 48 30.35 1028 10 16.0934 0 0
1:15 am 01:15 Cloudy 26 -3.5 21 -6 83 83 N 28 44 30.38 1029 10 16.0934 0 0
1:35 am 01:35 Cloudy 26 -3.6 20 -6.5 81 81 N 33 54 30.39 1029 10 16.0934 0 0
1:55 am 01:55 Cloudy 25 -3.7 21 -6 84 84 N 24 39 30.42 1030 10 16.0934 0 0
2:15 am 02:15 Cloudy 25 -4.1 19 -7 80 80 N 23 37 30.45 1031 10 16.0934 0 0
2:35 am 02:35 Cloudy 24 -4.5 19 -7 83 83 N 30 48 30.45 1031 10 16.0934 0 0
2:55 am 02:55 Cloudy 24 -4.6 18 -7.7 79 79 N 26 43 30.47 1032 10 16.0934 0 0
3:15 am 03:15 Cloudy 23 -4.8 17 -8.1 78 78 N 22 35 30.49 1033 10 16.0934 0 0
3:35 am 03:35 Mostly Cloudy 23 -5.2 15 -9.2 74 74 N 23 37 30.52 1033 10 16.0934 0 0
3:55 am 03:55 Mostly Cloudy 22 -5.7 16 -9.1 77 77 NNW 23 37 30.54 1034 10 16.0934 0 0
4:15 am 04:15 Partly Cloudy 21 -6.3 13 -10.3 74 74 NNW 25 41 30.57 1035 10 16.0934 0 0
4:35 am 04:35 Clear 20 -6.5 13 -10.6 73 73 N 22 35 30.57 1035 10 16.0934 0 0
4:55 am 04:55 Clear 20 -6.7 13 -10.5 75 75 NNW 23 37 30.58 1036 10 16.0934 0 0
5:15 am 05:15 Clear 19 -7.2 12 -11.1 74 74 NNW 22 35 30.6 1036 10 16.0934 0 0
5:35 am 05:35 Clear 18 -7.8 10 -12.3 70 70 NNW 26 43 30.6 1036 10 16.0934 0 0
5:55 am 05:55 Clear 17 -8.1 9 -12.9 69 69 NNW 25 41 30.62 1037 10 16.0934 0 0
6:15 am 06:15 Clear 17 -8.2 9 -13 69 69 N 22 35 30.63 1037 10 16.0934 0 0
6:35 am 06:35 Clear 17 -8.5 9 -13 70 70 N 18 30 30.64 1038 10 16.0934 0 0
6:55 am 06:55 Clear 16 -8.8 9 -12.7 74 74 N 17 28 30.63 1037 10 16.0934 0 0
7:15 am 07:15 Clear 16 -9 9 -13 73 73 N 20 31 30.64 1037 10 16.0934 0 0
7:35 am 07:35 Clear 15 -9.2 8 -13.6 71 71 N 25 41 30.64 1038 10 16.0934 0 0
7:55 am 07:55 Sunny 15 -9.5 7 -14.1 69 69 N 20 31 30.64 1038 10 16.0934 0 0
8:15 am 08:15 Sunny 15 -9.5 7 -14 70 70 N 22 35 30.65 1038 10 16.0934 0 0
8:35 am 08:35 Sunny 15 -9.3 7 -13.9 70 70 N 22 35 30.68 1039 10 16.0934 0 0
8:55 am 08:55 Sunny 16 -8.9 7 -13.7 69 69 N 23 37 30.7 1039 10 16.0934 0 0
9:15 am 09:15 Sunny 17 -8.5 7 -13.7 66 66 N 22 35 30.71 1040 10 16.0934 0 0
9:35 am 09:35 Sunny 18 -8 8 -13.5 65 65 N 23 37 30.72 1040 10 16.0934 0 0
9:55 am 09:55 Sunny 19 -7.5 9 -12.9 66 66 N 17 28 30.74 1041 10 16.0934 0 0
10:15 am 10:15 Sunny 19 -7.4 9 -12.9 65 65 N 14 22 30.75 1041 10 16.0934 0 0
10:35 am 10:35 Sunny 20 -6.7 9 -12.7 63 63 N 12 19 30.75 1041 10 16.0934 0 0
10:55 am 10:55 Sunny 21 -6.3 10 -12.1 64 64 NNE 14 22 30.76 1042 10 16.0934 0 0
11:15 am 11:15 Sunny 21 -6.1 11 -11.6 65 65 N 10 17 30.76 1042 10 16.0934 0 0
11:35 am 11:35 Sunny 22 -5.8 11 -11.5 64 64 N 8 13 30.75 1041 10 16.0934 0 0
11:55 am 11:55 Sunny 23 -5.2 13 -10.8 65 65 N 8 13 30.75 1041 10 16.0934 0 0
12:15 pm 12:15 Sunny 23 -5 12 -11 63 63 N 9 15 30.75 1041 10 16.0934 0 0
12:35 pm 12:35 Sunny 24 -4.4 14 -10 65 65 N 8 13 30.74 1041 10 16.0934 0 0
12:55 pm 12:55 Sunny 24 -4.3 15 -9.7 66 66 N 9 15 30.73 1041 10 16.0934 0 0
1:15 pm 13:15 Sunny 24 -4.3 14 -10.2 64 64 N 9 15 30.73 1041 10 16.0934 0 0
1:35 pm 13:35 Sunny 25 -3.7 16 -9.1 67 67 N 8 13 30.71 1040 10 16.0934 0 0
1:55 pm 13:55 Sunny 26 -3.4 16 -8.8 67 67 N 10 17 30.71 1040 10 16.0934 0 0
2:15 pm 14:15 Sunny 27 -2.7 17 -8.5 65 65 N 9 15 30.69 1039 10 16.0934 0 0
2:35 pm 14:35 Sunny 28 -2.4 16 -8.8 62 62 N 9 15 30.68 1039 10 16.0934 0 0
2:55 pm 14:55 Sunny 28 -2.1 17 -8.5 62 62 N 10 17 30.67 1039 10 16.0934 0 0
3:15 pm 15:15 Sunny 28 -2 16 -8.7 61 61 NNE 9 15 30.66 1038 10 16.0934 0 0
3:35 pm 15:35 Sunny 29 -1.8 16 -9 58 58 N 7 11 30.65 1038 10 16.0934 0 0
3:55 pm 15:55 Sunny 29 -1.6 15 -9.5 55 55 N 3 6 30.63 1037 10 16.0934 0 0
4:15 pm 16:15 Sunny 29 -1.4 16 -8.7 58 58 N 9 15 30.62 1037 10 16.0934 0 0
4:35 pm 16:35 Sunny 30 -1.2 16 -8.7 57 57 NNE 9 15 30.62 1037 10 16.0934 0 0
4:55 pm 16:55 Sunny 31 -0.8 17 -8.3 57 57 N 8 13 30.61 1037 10 16.0934 0 0
5:15 pm 17:15 Sunny 30 -1.2 15 -9.2 55 55 NE 9 15 30.61 1037 10 16.0934 0 0
5:35 pm 17:35 Sunny 30 -1.3 16 -9.1 56 56 NE 7 11 30.6 1036 10 16.0934 0 0
5:55 pm 17:55 Sunny 30 -1.2 15 -9.2 55 55 NE 8 13 30.6 1036 10 16.0934 0 0
6:15 pm 18:15 Sunny 30 -1.1 15 -9.2 55 55 NNE 7 11 30.58 1035 10 16.0934 0 0
6:35 pm 18:35 Sunny 29 -1.5 14 -9.8 54 54 NE 8 13 30.58 1036 10 16.0934 0 0
6:55 pm 18:55 Sunny 29 -1.6 15 -9.4 56 56 ENE 8 13 30.58 1036 10 16.0934 0 0
7:15 pm 19:15 Sunny 28 -2 15 -9.3 58 58 ENE 8 13 30.6 1036 10 16.0934 0 0
7:35 pm 19:35 Sunny 28 -2.3 15 -9.5 58 58 ENE 6 9 30.6 1036 10 16.0934 0 0
7:55 pm 19:55 Clear 27 -2.6 17 -8.6 64 64 ENE 8 13 30.6 1036 10 16.0934 0 0
8:15 pm 20:15 Clear 27 -3 17 -8.3 67 67 ENE 8 13 30.62 1037 10 16.0934 0 0
8:35 pm 20:35 Mostly Cloudy 27 -3 18 -7.9 69 69 ENE 7 11 30.62 1037 10 16.0934 0 0
8:55 pm 20:55 Mostly Cloudy 26 -3.1 16 -8.8 65 65 E 9 15 30.63 1037 10 16.0934 0 0
9:15 pm 21:15 Mostly Cloudy 26 -3.5 16 -8.9 67 67 ENE 8 13 30.63 1037 10 16.0934 0 0
9:35 pm 21:35 Mostly Cloudy 26 -3.5 16 -8.8 67 67 E 10 17 30.63 1037 10 16.0934 0 0
9:55 pm 21:55 Mostly Cloudy 25 -3.8 16 -9 68 68 E 8 13 30.64 1038 10 16.0934 0 0
10:15 pm 22:15 Partly Cloudy 24 -4.3 17 -8.5 73 73 E 7 11 30.65 1038 10 16.0934 0 0
10:35 pm 22:35 Clear 24 -4.6 18 -8 77 77 ESE 6 9 30.65 1038 10 16.0934 0 0
10:55 pm 22:55 Clear 23 -4.9 17 -8.2 78 78 ESE 7 11 30.64 1038 10 16.0934 0 0
11:15 pm 23:15 Clear 23 -5 17 -8.2 79 79 E 7 11 30.65 1038 10 16.0934 0 0
11:35 pm 23:35 Clear 23 -5.2 17 -8.4 78 78 E 8 13 30.64 1038 10 16.0934 0 0
11:55 pm 23:55 Clear 23 -5.2 17 -8.3 79 79 E 9 15 30.65 1038 10 16.0934 0 0

Powered by AerisWeather